Flag for Switzerland Weather past 2 weeks in Emmen, Lucerne, Switzerland

Now
92 °F

Hot.


Feels Like: 97 °F
Forecast: 64 / 97 °F
Wind: 2 mph from Northeast

Location: Giswil

Current Time: Jul 4, 2015 at 7:21:32 PM

Latest Report: Jul 4, 2015 at 6:00 PM


Visibility: N/A

Pressure: 30.04 "Hg

Humidity: 46%

Dew point: 68 °F

Location of EmmenLocation

Historic Weather in Emmen — Graph

°F

Emmen temperature yesterday

Maximum temperature yesterday: 92 °F (at 6:00 PM)
Minimum temperature yesterday: 64 °F (at 4:00 AM)
Average temperature yesterday: 79 °F

Past Weeks' High & Low Weather Summary

 TemperatureHumidityPressure
High94 °F (Jul 4, 5:00 PM)99% (Jun 22, 6:00 AM)30.25 "Hg (Jun 22, 6:00 AM)
Low47 °F (Jun 25, 6:00 AM)38% (Jun 30, 3:00 PM)29.71 "Hg (Jun 22, 11:00 PM)
Average67 °F73%30.10 "Hg
* Reported Jun 19 6:00 PM — Jul 4 6:00 PM, Emmen, Weather by CustomWeather, © 2015

Note: Actual official high and low records may vary slightly from our data, if they occured in-between our weather recording intervals... More about our weather records

Advertising

Emmen weather history for previous 24 hours

 ConditionsComfort  
Time TempWeatherWind HumidityBarometerVisibility
6:00 PM
Sat, Jul 4
92 °FHot.2 mph46%30.04 "HgN/A
5:00 PM94 °FExtremely hot.5 mph40%30.05 "HgN/A
4:00 PM93 °FHot.3 mph42%30.06 "HgN/A
3:00 PM92 °FHot.2 mph39%30.07 "HgN/A
2:00 PM90 °FHot.2 mph41%30.10 "HgN/A
1:00 PM89 °FHot.2 mph40%30.12 "HgN/A
12:00 PM86 °FWarm.2 mph40%30.14 "HgN/A
11:00 AM83 °FWarm.2 mph47%30.15 "HgN/A
10:00 AM81 °FWarm.1 mph50%30.16 "HgN/A
9:00 AM76 °FMild.1 mph65%30.18 "HgN/A
8:00 AM73 °FMild.1 mph74%30.19 "HgN/A
7:00 AM65 °FMild.1 mph87%30.20 "HgN/A
6:00 AM65 °FMild.1 mph86%30.20 "HgN/A
5:00 AM65 °FMild.2 mph85%30.19 "HgN/A
4:00 AM64 °FMild.1 mph89%30.19 "HgN/A
3:00 AM66 °FMild.2 mph87%30.18 "HgN/A
2:00 AM67 °FMild.2 mph87%30.18 "HgN/A
1:00 AM69 °FMild.2 mph82%30.18 "HgN/A
12:00 AM73 °FMild.3 mph76%30.17 "HgN/A
11:00 PM
Fri, Jul 3
75 °FMild.2 mph72%30.16 "HgN/A
10:00 PM74 °FMild.3 mph78%30.16 "HgN/A
9:00 PM80 °FWarm.3 mph74%30.13 "HgN/A
8:00 PM83 °FWarm.2 mph69%30.12 "HgN/A
7:00 PM90 °FHot.1 mph55%30.10 "HgN/A
Weather by CustomWeather, © 2015

See weather overviewHow to use our weather pages